カタログに戻る

FENGYUN 1C DEB

運用中SSO
NORAD 30735·DEBRIS·🇨🇳 China

打ち上げ May 10, 1999 から Taiyuan Satellite Launch Center

Loading…

次のパス (今後24時間)

TLE

最新Source: Space-Track

元期: Sep 13, 2026, 22:19 UTC

1 30735U 99025ASV 26256.93008964  .00001836  00000-0  78023-3 0  9994
2 30735  98.7478 332.2320 0060076 167.0158 250.6133 14.25534454  6604

AllMySatでFENGYUN 1C DEBをリアルタイム追跡

Download on the App Store